Home > Weather > Kraków > Past weeks

Flag for Poland Weather for the Past 2 Weeks in Kraków, Poland

Now
57 °F

Sunny.


Feels Like: 55 °F
Forecast: 46 / 68 °F
Wind: 10 mph from North

Location: Krakow Airport

Current Time: May 3, 2016 at 8:54:48 PM

Latest Report: May 3, 2016 at 8:30 PM


Visibility: 10 mi

Pressure: 29.89 "Hg

Humidity: 67%

Dew Point: 46 °F

Location of KrakówLocation

Historic Weather in Kraków — Graph

°F

Kraków Temperature Yesterday

Maximum temperature yesterday: 61 °F (at 4:30 PM)
Minimum temperature yesterday: 48 °F (at 2:30 AM)
Average temperature yesterday: 54 °F

High & Low Weather Summary for the Past Weeks

 TemperatureHumidityPressure
High64 °F (May 3, 2:30 PM)100% (Apr 19, 2:00 AM)30.33 "Hg (Apr 19, 2:00 AM)
Low28 °F (Apr 26, 4:00 AM)29% (Apr 22, 3:00 PM)29.59 "Hg (Apr 23, 11:00 PM)
Average47 °F70%29.97 "Hg
* Reported Apr 18 8:00 PM — May 3 8:00 PM, Kraków, Weather by CustomWeather, © 2016

Note: Actual official high and low records may vary slightly from our data, if they occured in-between our weather recording intervals... More about our weather records

Advertising

Kraków Weather History for the Previous 24 Hours

Scroll right to see more
 ConditionsComfort  
Time TempWeatherWind HumidityBarometerVisibility
8:00 PM
Tue, May 3
59 °FSunny.9 mph63%29.89 "Hg10 mi
7:30 PM61 °FSunny.12 mph63%29.89 "Hg10 mi
7:00 PM61 °FSunny.9 mph63%29.86 "Hg10 mi
6:30 PM63 °FPassing clouds.12 mph59%29.86 "HgN/A
6:00 PM63 °FPassing clouds.13 mph59%29.86 "HgN/A
5:30 PM63 °FPassing clouds.14 mph56%29.86 "HgN/A
5:00 PM64 °FPassing clouds.14 mph56%29.86 "HgN/A
4:30 PM64 °FPassing clouds.16 mph60%29.86 "HgN/A
4:00 PM64 °FPassing clouds.16 mph46%29.86 "HgN/A
3:30 PM64 °FScattered clouds.16 mph46%29.86 "HgN/A
3:00 PM64 °FScattered clouds.17 mph52%29.89 "HgN/A
2:30 PM64 °FScattered clouds.15 mph56%29.89 "HgN/A
1:30 PM63 °FScattered clouds.13 mph59%29.92 "HgN/A
1:00 PM63 °FPassing clouds.10 mph59%29.92 "HgN/A
12:30 PM63 °FPassing clouds.6 mph68%29.92 "HgN/A
12:00 PM59 °FPassing clouds.10 mph68%29.95 "HgN/A
11:00 AM57 °FPartly sunny.7 mph77%29.95 "HgN/A
10:30 AM55 °FPartly sunny.7 mph82%29.98 "HgN/A
10:00 AM55 °FPartly sunny.7 mph82%29.95 "HgN/A
9:30 AM55 °FPartly sunny.6 mph82%29.95 "HgN/A
9:00 AM54 °FPartly sunny.7 mph82%29.98 "HgN/A
8:30 AM54 °FPartly sunny.6 mph82%29.98 "HgN/A
8:00 AM52 °FPassing clouds.5 mph88%29.98 "HgN/A
7:30 AM52 °FPassing clouds.3 mph88%29.98 "HgN/A
7:00 AM52 °FSunny.2 mph82%29.98 "Hg10 mi
6:30 AM50 °FSunny.1 mph88%29.98 "Hg10 mi
6:00 AM48 °FPassing clouds.1 mph100%29.98 "HgN/A
5:00 AM50 °FPassing clouds.2 mph94%29.98 "HgN/A
4:30 AM50 °FPassing clouds.5 mph94%29.98 "HgN/A
3:30 AM50 °FPassing clouds.3 mph94%30.01 "HgN/A
3:00 AM52 °FPassing clouds.6 mph88%30.01 "HgN/A
2:30 AM52 °FPassing clouds.6 mph88%30.01 "HgN/A
2:00 AM52 °FPassing clouds.6 mph88%30.01 "HgN/A
1:30 AM52 °FPartly cloudy.7 mph88%30.01 "HgN/A
1:00 AM52 °FPassing clouds.6 mph88%30.04 "HgN/A
12:00 AM52 °FPassing clouds.2 mph82%30.04 "HgN/A
11:30 PM
Mon, May 2
54 °FPassing clouds.2 mph82%30.04 "HgN/A
11:00 PM52 °FPassing clouds.5 mph82%30.04 "HgN/A
10:30 PM54 °FPassing clouds.6 mph82%30.07 "HgN/A
10:00 PM54 °FPassing clouds.8 mph82%30.07 "HgN/A
9:30 PM55 °FPassing clouds.9 mph77%30.07 "HgN/A
9:00 PM57 °FPartly sunny.9 mph72%30.07 "HgN/A
8:30 PM57 °FPartly sunny.5 mph72%30.04 "HgN/A
8:00 PM59 °FPartly sunny.5 mph68%30.04 "HgN/A
Weather by CustomWeather, © 2016

See weather overviewHow to use our weather pages